Regional Weather Roundup
Issued by NWS

Home | Current Version | Previous Version | Graphics & Text | Print | Product List | Glossary On
Versions: 1 2 3 4 5 6 7 8 9 10 11 12 13 14 15 16 17 18 19 20 21 22 23 24 25 26 27 28 29 30 31 32 33 34 35 36 37 38 39 40 41 42 43 44 45 46 47 48 49 50
000
ASUS43 KTOP 212008
RWRKS

WEATHER ROUNDUP FOR KANSAS
NATIONAL WEATHER SERVICE GOODLAND KS
300 PM CDT MON AUG 21 2017

NOTE:  "FAIR" INDICATES FEW OR NO CLOUDS BELOW 12,000 FEET WITH NO
SIGNIFICANT WEATHER AND/OR OBSTRUCTIONS TO VISIBILITY.

KSZ001>006-013>018-027>032-041>047-212100-
NORTHWEST KANSAS

CITY           SKY/WX    TMP DP  RH WIND       PRES   REMARKS
GOODLAND       MOSUNNY   84  60  44 S7        29.99S
HAYS           CLOUDY    89  66  46 S21G30    29.95F
HILL CITY      CLOUDY    89  65  44 SW16G23   29.94F
RUSSELL        CLOUDY    86  66  51 S23G29    29.95F
$$

KSZ061>065-074>080-084>089-212100-
SOUTHWEST KANSAS

CITY           SKY/WX    TMP DP  RH WIND       PRES   REMARKS
DODGE CITY     SUNNY     87  64  46 SW23G33   30.01F
ELKHART          N/A     82  66  58 SW13        N/A
GARDEN CITY    SUNNY     86  65  49 S23G33    30.00S
GREAT BEND     PTSUNNY   85  68  56 S22G28    29.98F
LIBERAL        SUNNY     81  67  62 SW22      30.05R
PRATT          CLOUDY    87  67  51 SW15G23   30.02S
$$

KSZ066>073-081>083-090>101-212100-
SOUTHEAST KANSAS

CITY           SKY/WX    TMP DP  RH WIND       PRES   REMARKS
CHANUTE        SUNNY     91  76  61 S15       30.03F HX 103
COFFEYVILLE    SUNNY     90  77  65 S16       30.03F HX 103
HUTCHINSON     MOSUNNY   90  73  57 S15G24    30.00S HX  98
MEDICINE LODGE   N/A     85  71  63 S7        30.00S
NEWTON         MOSUNNY   89  73  59 S21       30.01F HX  97
PARSONS        SUNNY     89  75  63 S12       30.05F HX  99
WICHITA INTL   PTSUNNY   92  71  50 S17       30.00S HX  98
WICHITA JABRA  MOSUNNY   89  74  60 S15G24    30.00S HX  98
WICHITA MCCONL SUNNY     92  69  47 SW18G29   30.01S HX  97
WINFIELD       SUNNY     89  73  59 S16G22    30.02S HX  97
$$

KSZ007>012-019>026-033>040-048>060-102>105-212100-
NORTHEAST KANSAS

CITY           SKY/WX    TMP DP  RH WIND       PRES   REMARKS
CONCORDIA      MOSUNNY   84  71  65 S15G22    29.97S
EMPORIA        CLOUDY    90  73  57 S20G25    29.99F HX  98
LAWRENCE       CLOUDY    81  76  84 NE6G16    29.99F
MANHATTAN      CLOUDY    84  74  71 N3        29.96F
MARYSVILLE     CLOUDY    84  70  61 S13G22    29.97S
OLATHE IND     MOSUNNY   87  77  72 S13       30.01F HX  99
OLATHE EXE     PTSUNNY   83  77  82 S13       30.01F
SALINA         CLOUDY    90  72  55 S15G25    29.97S HX  97
TOPEKA BILLARD CLOUDY    85  80  85 SE7       29.97F HX  99
TOPEKA FORBES  MOSUNNY   90  76  63 S15G23    29.98F HX 101
$$



USA.gov is the U.S. government's official web portal to all federal, state and local government web resources and services.